Regional Weather Roundup
Issued by NWS

Home | Current Version | Previous Version | Graphics & Text | Print | Product List | Glossary On
Versions: 1 2 3 4 5 6 7 8 9 10 11 12 13 14 15 16 17 18 19 20 21 22 23 24 25 26 27 28 29 30 31 32 33 34 35 36 37 38 39 40 41 42 43 44 45 46 47 48 49 50
266
ASUS43 KMKX 300321
RWRWI

WISCONSIN REGIONAL WEATHER ROUNDUP
NATIONAL WEATHER SERVICE MILWAUKEE/SULLIVAN WI
1000 PM CDT SAT APR 29 2017

NOTE: "FAIR" INDICATES FEW OR NO CLOUDS BELOW 12,000 FEET WITH NO
SIGNIFICANT WEATHER AND/OR OBSTRUCTIONS TO VISIBILITY.

WIZ001-002-006>008-014>016-023>028-300400-
NORTHWEST WISCONSIN

CITY           SKY/WX    TMP DP  RH WIND       PRES   REMARKS
SUPERIOR ARPT  CLOUDY    38  25  60 NE8       30.32R WCI  32
ASHLAND        CLOUDY    35  24  64 NE8       30.33R WCI  29
HAYWARD        CLOUDY    39  20  46 NE7       30.28R WCI  34
SIREN          CLOUDY    43  21  41 E6        30.28R
CUMBERLAND     CLOUDY    43  23  45 NE12      30.25S
RICE LAKE      CLOUDY    44  26  48 NE14      30.25S
CHETEK         CLOUDY    45  28  50 NE8       30.24S
LADYSMITH      CLOUDY    45  28  52 NE9       30.25S
EAU CLAIRE     CLOUDY    49  26  41 NE8       30.19F
MENOMONIE      CLOUDY    50  25  37 NE9G17    30.21R
NEW RICHMOND   CLOUDY    46  24  42 NE13      30.22R
OSCEOLA        CLOUDY    47  26  42 NE12      30.26R
$$

WIZ003>005-009-010-017-018-300400-
NORTH CENTRAL WISCONSIN

CITY           SKY/WX    TMP DP  RH WIND       PRES   REMARKS
MANITOWISH WTR CLOUDY    37  21  53 NE7       30.25F WCI  31
ARBOR VITAE    PTCLDY    42  24  49 NE5       30.26R
WOODRUFF       PTCLDY    42  24  49 NE5       30.26R
RHINELANDER    MOCLDY    43  23  45 E10G20    30.23F
EAGLE RIVER    MOCLDY    39  16  40 E13G20    30.24F WCI  31
LAND O LAKES   CLOUDY    38  22  51 E5        30.26F WCI  35
PHILLIPS       CLOUDY    41  25  53 NE8       30.25R
TOMAHAWK       CLOUDY    44  22  42 NE5       30.25R
MEDFORD        CLOUDY    44  26  49 E9        30.21R
MERRILL        MOCLDY    46  22  39 E12       30.23R
$$

WIZ029-030-035-036-043>047-300400-
CENTRAL WISCONSIN

CITY           SKY/WX    TMP DP  RH WIND       PRES   REMARKS
WAUSAU         CLOUDY    44  29  55 E9        30.21S
MOSINEE        CLOUDY    43  28  56 E8        30.23S
MARSHFIELD     CLOUDY    43  30  60 E12       30.19R
STEVENS POINT  CLOUDY    42  25  51 NE9G20    30.21R
WAUPACA        CLOUDY    47  27  46 NE12G17   30.20F
WAUTOMA        CLOUDY    44  27  51 NE17G24   30.17
WISC RAPIDS    CLOUDY    45  27  49 E10G23    30.20R
CAMP DOUGLAS   CLOUDY    44  29  54 NE9       30.14S
$$

WIZ011>013-019>022-031-037>040-048>050-300400-
NORTHEAST WISCONSIN

CITY           SKY/WX    TMP DP  RH WIND       PRES   REMARKS
ANTIGO         MOCLDY    42  19  39 E17G28    30.22F
SHAWANO        CLOUDY    47  27  47 NE14G25   30.24F
OCONTO         NOT AVBL
STURGEON BAY   CLOUDY    43  29  57 NE14G21   30.25F
GREEN BAY      CLOUDY    45  30  55 NE20      30.22S
MANITOWOC      CLOUDY    42  30  62 NE14G20   30.19F
APPLETON       CLOUDY    45  21  39 NE18G31   30.18R
CLINTONVILLE   CLOUDY    45  27  49 NE13G20   30.22F
OSHKOSH        LGT RAIN  43  30  60 NE17G31   30.17R
$$

WIZ032>034-041-042-053>061-300400-
SOUTHWEST WISCONSIN

CITY           SKY/WX    TMP DP  RH WIND       PRES   REMARKS
LA CROSSE      CLOUDY    49  30  48 E12       30.15S
SPARTA         CLOUDY    45  30  55 E12G18    30.15F
VIROQUA        CLOUDY    42  27  55 E17G24    30.10F
BOSCOBEL       CLOUDY    44  30  57 NE13G23   30.10F
PRAIRIE DU CHI CLOUDY    43  31  62 NE15      30.09F
PLATTEVILLE    CLOUDY    40  36  87 NE17G24   30.05F WCI  31
$$

WIZ056-057-062-063-064-067-068-300400-
SOUTH CENTRAL WISCONSIN

CITY           SKY/WX    TMP DP  RH WIND       PRES   REMARKS
REEDSBURG      CLOUDY    42  28  56 NE14G21   30.11F
BARABOO/DELLS  CLOUDY    42  27  54 E20G29    30.10F
LONE ROCK      CLOUDY    42  30  62 E17G28    30.09F
MINERAL POINT  CLOUDY    41  36  81 NE20G25   30.04F
MADISON        DRIZZLE   38  34  85 NE15      30.10F WCI  29
MIDDLETON      CLOUDY    40  35  84 NE14G23   30.10S WCI  32
WATERTOWN      LGT RAIN  38  38 100 NE10G20   30.10R WCI  30
MONROE         CLOUDY    37  36  93 NE21G30   30.02F WCI  27
JANESVILLE     CLOUDY    41  39  93 NE13G21   30.04F
$$

WIZ051-052-058>065-066-070>072-300400-
SOUTHEAST WISCONSIN

CITY           SKY/WX    TMP DP  RH WIND       PRES   REMARKS
MILWAUKEE      LGT RAIN  41  39  93 NE23G32   30.08F
WAUKESHA       NOT AVBL
MILWAUKEE/TIMM LGT RAIN  37  34  87 NE17G23   30.10F WCI  28
RACINE         LGT RAIN  41  38  89 NE22G31   30.06F
KENOSHA        LGT RAIN  42  39  89 NE23G31   30.02F
FOND DU LAC    LGT RAIN  41  31  67 NE13G23   30.17R
SHEBOYGAN      LGT RAIN  40  36  86 E21       30.17F WCI  30
WEST BEND      LGT RAIN  37  36  93 NE16G33   30.11F WCI  28
JUNEAU         DRIZZLE   37  35  91 NE12      30.14R WCI  29
$$

LSZ147-162-300400-
LAKE SUPERIOR

STATION/POSITION TIME  TEMP    WIND        PRES    WAVE
                       AIR SEA DIR/SP/G            HT/PER
                 (UTC) (F)     (DEG/KT/KT) (MB)    (FT/S)
DEVILS ISLAND    0300   37      70/  8/ 10 1028.2R
PORT WING        0230   38      40/  6/  9 1026.8R
SAXON HARBOR     0240   35     190/  2/  3 1026.1R
$$

LMZ867-665-643>646-300400-
LAKE MICHIGAN

STATION/POSITION TIME  TEMP    WIND        PRES    WAVE
                       AIR SEA DIR/SP/G            HT/PER
                 (UTC) (F)     (DEG/KT/KT) (MB)    (FT/S)
CHAMBERS ISLAND  0240   40     360/ 15/ 18 1025.1F
N MID LAKE BUOY  0250   38 37   30/ 12/ 14 1026.9F   1/ 3
NORTHPORT PIER   0240   41      20/  9/ 11 1025.7S
KEWAUNEE LAKESHO 0254   43      50/ 15/ 22 1022.6F
SHEBOYGAN LAKESH 0300   40      50/ 24/ 26 1021.9F
PORT WASHINGTON  0302   41      50/ 20/ 25 1021.0F
MILWAUKEE LAKESH 0300   40      40/ 25/ 29   N/A
S MID LAKE BUOY  0250   44 41   50/ 25/ 31 1017.6F   5/ 7
KENOSHA   LAKESH 0300   42      40/ 27/ 33 1016.6
$$

TC  - TEMPERATURE IN CELSIUS
VSB - VISIBILITY IN STATUTE MILES
WCI - WIND CHILL INDEX
HX  - HEAT INDEX





USA.gov is the U.S. government's official web portal to all federal, state and local government web resources and services.